Weather History for Rockingham, NC

Change the Weather History Date:

Sunday, January 6, 2013

  Actual Average (KHFF) Record (KHFF)
Temperature  
Mean Temperature 46 °F -  
Max Temperature 49 °F 55 °F 71 °F (2005)
Min Temperature 42 °F 32 °F 15 °F (1999)
Degree Days  
Heating Degree Days 20    
Moisture  
Dew Point 40 °F    
Average Humidity 83    
Maximum Humidity 100    
Minimum Humidity 59    
Precipitation  
Precipitation 0.00 in - - ()
Sea Level Pressure  
Sea Level Pressure 30.16 in    
Wind  
Wind Speed 3 mph (SSW)    
Max Wind Speed 8 mph    
Max Gust Speed -    
Visibility 8 miles    
Events Fog , Rain    
Averages and records for this station are not official NWS values.
T = Trace of Precipitation, MM = Missing Value Source: NWS Daily Summary

Daily Weather History Graph

Daily Weather History Graph

Search for Another Location

Airport:

Trip Planner

Search our weather history database for the weather conditions in past years. The results will help you decide how hot, cold, wet, or windy it might be!

Date:

Astronomy

Jan. 06, 2013 Rise Set
Actual Time 7:27 AM EST 5:22 PM EST
Civil Twilight 6:59 AM EST 5:50 PM EST
Nautical Twilight 6:28 AM EST 6:22 PM EST
Astronomical Twilight 5:57 AM EST 6:52 PM EST
Moon 1:45 AM EST (1/6) 12:44 PM EST (1/6)
Length of Visible Light 10h 51m
Length of Day
9h 55m
Waning Crescent, 33% of the Moon is Illuminated
Jan 6
Waning Crescent
Jan 11
New
Jan 18
First Quarter
Jan 26
Full
Feb 3
Last Quarter

Hourly Weather History & Observations

Time (EST) Temp. Windchill Dew Point Humidity Pressure Visibility Wind Dir Wind Speed Gust Speed Precip Events Conditions
12:15 AM 43.2 °F - 30.2 °F 60% 30.24 in 10.0 mi Calm Calm - N/A   Overcast
12:35 AM 43.3 °F - 30.4 °F 60% 30.24 in 10.0 mi Calm Calm - N/A   Overcast
12:55 AM 43.2 °F 40.5 °F 31.1 °F 62% 30.23 in 10.0 mi South 4.6 mph - N/A   Overcast
1:15 AM 43.7 °F 39.7 °F 30.4 °F 59% 30.23 in 10.0 mi South 6.9 mph - N/A   Overcast
1:35 AM 43.7 °F 41.1 °F 31.1 °F 61% 30.24 in 10.0 mi SSW 4.6 mph - N/A   Overcast
1:55 AM 43.7 °F 41.1 °F 31.1 °F 61% 30.24 in 10.0 mi South 4.6 mph - N/A   Overcast
2:15 AM 43.9 °F 40.5 °F 31.1 °F 61% 30.24 in 10.0 mi SSW 5.8 mph - N/A   Overcast
2:35 AM 43.7 °F 41.1 °F 31.8 °F 63% 30.23 in 10.0 mi South 4.6 mph - N/A   Overcast
2:55 AM 44.1 °F 42.5 °F 32.0 °F 63% 30.23 in 10.0 mi SW 3.5 mph - N/A   Overcast
3:15 AM 43.7 °F - 33.1 °F 66% 30.23 in 10.0 mi Calm Calm - N/A Rain Light Rain
3:35 AM 43.3 °F - 34.0 °F 70% 30.22 in 10.0 mi Calm Calm - N/A   Overcast
3:55 AM 43.7 °F - 34.2 °F 69% 30.21 in 10.0 mi Calm Calm - N/A Rain Light Rain
4:15 AM 43.5 °F - 34.7 °F 71% 30.21 in 10.0 mi Calm Calm - N/A   Overcast
4:35 AM 43.3 °F - 34.9 °F 72% 30.20 in 10.0 mi Calm Calm - N/A   Overcast
5:15 AM 43.2 °F 41.5 °F 35.2 °F 74% 30.20 in 10.0 mi SSW 3.5 mph - N/A   Overcast
5:35 AM 43.2 °F - 35.1 °F 73% 30.19 in 10.0 mi Calm Calm - N/A   Overcast
5:55 AM 43.3 °F - 35.6 °F 74% 30.18 in 10.0 mi Calm Calm - N/A   Overcast
6:35 AM 43.7 °F - 35.8 °F 74% 30.18 in 10.0 mi Calm Calm - N/A   Overcast
6:55 AM 43.7 °F - 36.7 °F 76% 30.18 in 10.0 mi Calm Calm - N/A   Overcast
7:15 AM 44.1 °F - 35.8 °F 73% 30.19 in 10.0 mi Calm Calm - N/A   Overcast
7:35 AM 43.9 °F 41.3 °F 36.0 °F 74% 30.19 in 10.0 mi South 4.6 mph - N/A   Overcast
7:55 AM 43.7 °F 42.1 °F 36.9 °F 77% 30.20 in 10.0 mi South 3.5 mph - N/A   Light Drizzle
8:15 AM 43.7 °F 41.1 °F 37.2 °F 78% 30.20 in 10.0 mi South 4.6 mph - N/A   Overcast
8:35 AM 43.7 °F 42.1 °F 38.1 °F 81% 30.21 in 10.0 mi SW 3.5 mph - N/A Rain Light Rain
8:55 AM 43.9 °F 42.3 °F 38.8 °F 82% 30.21 in 10.0 mi South 3.5 mph - N/A   Light Drizzle
9:15 AM 44.2 °F 42.7 °F 39.4 °F 83% 30.22 in 10.0 mi SSW 3.5 mph - N/A Rain Light Rain
9:35 AM 44.1 °F 41.5 °F 39.4 °F 84% 30.22 in 7.0 mi South 4.6 mph - N/A Rain Rain
9:55 AM 43.9 °F 41.3 °F 40.1 °F 87% 30.22 in 10.0 mi South 4.6 mph - N/A   Overcast
10:15 AM 44.2 °F 41.0 °F 40.3 °F 86% 30.21 in 10.0 mi South 5.8 mph - N/A Rain Light Rain
10:35 AM 44.4 °F 42.9 °F 41.2 °F 88% 30.20 in 10.0 mi South 3.5 mph - N/A Rain Rain
10:55 AM 44.6 °F 43.1 °F 41.4 °F 88% 30.20 in 7.0 mi South 3.5 mph - N/A   Light Drizzle
11:15 AM 44.8 °F 43.3 °F 41.5 °F 88% 30.19 in 10.0 mi South 3.5 mph - N/A   Drizzle
11:35 AM 45.0 °F 42.6 °F 41.2 °F 87% 30.17 in 7.0 mi South 4.6 mph - N/A Rain Light Rain
11:55 AM 45.3 °F - 42.1 °F 88% 30.16 in 10.0 mi Calm Calm - N/A   Light Drizzle
12:15 PM 46.0 °F 44.8 °F 41.9 °F 85% 30.15 in 10.0 mi SW 3.5 mph - N/A   Overcast
12:35 PM 46.4 °F 43.5 °F 42.1 °F 85% 30.14 in 10.0 mi South 5.8 mph - N/A   Overcast
12:55 PM 46.8 °F - 41.9 °F 83% 30.14 in 10.0 mi SW 6.9 mph - N/A   Overcast
1:15 PM 47.3 °F - 42.1 °F 82% 30.13 in 10.0 mi WSW 4.6 mph - N/A   Overcast
1:35 PM 47.5 °F - 42.4 °F 83% 30.11 in 10.0 mi South 4.6 mph - N/A   Overcast
1:55 PM 48.2 °F - 43.0 °F 82% 30.10 in 10.0 mi South 8.1 mph - N/A   Overcast
2:15 PM 48.2 °F - 42.8 °F 82% 30.09 in 10.0 mi SW 5.8 mph - N/A   Overcast
2:35 PM 48.2 °F - 42.8 °F 82% 30.09 in 10.0 mi SW 3.5 mph - N/A   Overcast
2:55 PM 48.4 °F - 43.0 °F 82% 30.08 in 10.0 mi Calm Calm - N/A   Overcast
3:15 PM 48.6 °F - 43.2 °F 82% 30.08 in 10.0 mi SSW 3.5 mph - N/A   Overcast
3:35 PM 49.1 °F - 43.2 °F 80% 30.09 in 10.0 mi SSW 4.6 mph - N/A   Overcast
3:55 PM 48.9 °F - 43.2 °F 80% 30.08 in 10.0 mi South 3.5 mph - N/A   Overcast
4:15 PM 49.1 °F - 44.8 °F 85% 30.08 in 10.0 mi SSE 5.8 mph - N/A   Overcast
4:35 PM 48.4 °F - 45.5 °F 90% 30.07 in 10.0 mi SSE 4.6 mph - N/A   Mostly Cloudy
4:55 PM 48.4 °F - 45.9 °F 91% 30.08 in 10.0 mi South 4.6 mph - N/A   Mostly Cloudy
5:15 PM 48.2 °F - 46.6 °F 94% 30.07 in 10.0 mi South 4.6 mph - N/A   Overcast
5:35 PM 47.8 °F - 46.8 °F 96% 30.07 in 10.0 mi Calm Calm - N/A   Mostly Cloudy
5:55 PM 47.7 °F - 46.9 °F 97% 30.07 in 10.0 mi Calm Calm - N/A   Overcast
6:15 PM 47.7 °F - 46.9 °F 97% 30.08 in 10.0 mi Calm Calm - N/A   Overcast
6:35 PM 46.6 °F - 46.0 °F 98% 30.09 in 7.0 mi Calm Calm - N/A   Mostly Cloudy
6:55 PM 46.8 °F - 46.6 °F 99% 30.10 in 7.0 mi Calm Calm - N/A   Overcast
7:15 PM 47.1 °F - 46.9 °F 99% 30.10 in 7.0 mi Calm Calm - N/A   Overcast
7:35 PM 46.9 °F - 46.9 °F 100% 30.09 in 7.0 mi Calm Calm - N/A   Overcast
7:55 PM 46.9 °F - 46.9 °F 100% 30.11 in 2.5 mi WSW 3.5 mph - N/A   Overcast
8:15 PM 46.6 °F - 46.6 °F 100% 30.12 in 0.2 mi West 3.5 mph - N/A Fog Fog
8:35 PM 46.0 °F - 46.0 °F 100% 30.12 in 0.2 mi Calm Calm - N/A Fog Fog
8:55 PM 45.5 °F - 45.5 °F 100% 30.13 in 0.2 mi Calm Calm - N/A Fog Fog
9:15 PM 44.6 °F - 44.6 °F 100% 30.13 in 0.2 mi Calm Calm - N/A Fog Fog
9:35 PM 43.9 °F - 43.9 °F 100% 30.14 in 0.2 mi Calm Calm - N/A Fog Fog
10:15 PM 42.8 °F - 42.8 °F 100% 30.14 in 0.2 mi Calm Calm - N/A Fog Fog
10:55 PM 44.2 °F - 44.2 °F 100% 30.18 in 0.2 mi Calm Calm - N/A Fog Fog
11:15 PM 43.7 °F 40.3 °F 43.7 °F 100% 30.18 in 4.0 mi North 5.8 mph - N/A   Mostly Cloudy
11:35 PM 42.8 °F 39.3 °F 42.8 °F 100% 30.19 in 10.0 mi North 5.8 mph - N/A   Overcast
11:55 PM 42.1 °F 39.2 °F 42.1 °F 100% 30.19 in 10.0 mi NNE 4.6 mph - N/A   Overcast